STARLINK-4051 (53273 NORAD) Tracking and Keplerian Element Data

This shows tracking and keplerian element data for the satellite.

Feedback or suggestion? Click here.




ElementValue
Catalog53273
NameSTARLINK-4051
Epoch Orbit1081
Epoch Day270.25001157
Epoch Year2022
RAAN83.184
Inclination53.2175
Eccentricity0.0001727
Argument of Perigee35.1906
Mean Anonmoly113.7933
Mean Motion15.63007465
Decay Rate-0.01062207
L11 53273U 22086AH 22270.25001157 -.01062207 00000+0 -12606-1 0 9997
L22 53273 53.2175 83.1840 0001727 35.1906 113.7933 15.63007465 10814

Live tracking and technical data element details for STARLINK-4051 (NORAD 53273). STARLINK-4051 can be tracked NOW for your location showing map with azimuth and elevation plus other details from your city location.

Track the satellite on the map from your city or location and see movement details for azimuth, elevation, latitude, longitude, range, height, and movement on the map or in text.







IsCatalogInMostPopularTable: catalog: 53273, numindb: 2
Update: records affected: 1



GetName: 53273 STARLINK-4051

Hit Count: updated at: Thu, 29 Sep 2022 10:13:52 GMT